Weather History for Fremont, NE

Change the Weather History Date:

Saturday, December 1, 2012

  Actual Average Record
Temperature  
Mean Temperature 42 °F -  
Max Temperature 56 °F 41 °F 69 °F (1998)
Min Temperature 29 °F 23 °F -1 °F (1985)
Degree Days  
Heating Degree Days 22    
Moisture  
Dew Point 43 °F    
Average Humidity 97    
Maximum Humidity 100    
Minimum Humidity 84    
Precipitation  
Precipitation 0.00 in - - ()
Sea Level Pressure  
Sea Level Pressure 29.84 in    
Wind  
Wind Speed 3 mph (South)    
Max Wind Speed 10 mph    
Max Gust Speed 17 mph    
Visibility 3 miles    
Events Fog    
Averages and records for this station are not official NWS values.
T = Trace of Precipitation, MM = Missing Value Source: NWS Daily Summary

Daily Weather History Graph

Daily Weather History Graph

Search for Another Location

Airport:

Trip Planner

Search our weather history database for the weather conditions in past years. The results will help you decide how hot, cold, wet, or windy it might be!

Date:

Astronomy

Dec. 01, 2012 Rise Set
Actual Time 7:33 AM CST 4:57 PM CST
Civil Twilight 7:02 AM CST 5:27 PM CST
Nautical Twilight 6:28 AM CST 6:02 PM CST
Astronomical Twilight 5:54 AM CST 6:35 PM CST
Moon 7:48 PM CST (12/1) 9:46 AM CST (12/1)
Length of Visible Light 10h 25m
Length of Day
9h 23m
Waning Gibbous, 91% of the Moon is Illuminated
Dec 1
Waning Gibbous
Dec 6
Last Quarter
Dec 13
New
Dec 19
First Quarter
Dec 28
Full

Hourly Weather History & Observations

Time (CST) Temp. Windchill Dew Point Humidity Pressure Visibility Wind Dir Wind Speed Gust Speed Precip Events Conditions
12:15 AM 29.1 °F - 27.5 °F 94% 29.95 in 5.0 mi Calm Calm - N/A   Clear
12:35 AM 30.0 °F - 29.5 °F 98% 29.94 in 5.0 mi Calm Calm - N/A   Clear
12:55 AM 31.6 °F - 30.6 °F 96% 29.94 in 5.0 mi Calm Calm - N/A   Clear
1:15 AM 32.0 °F - 30.9 °F 96% 29.93 in 5.0 mi Calm Calm - N/A   Clear
1:35 AM 32.0 °F 28.7 °F 31.1 °F 96% 29.91 in 5.0 mi SSE 3.5 mph - N/A   Clear
1:55 AM 34.0 °F - 32.9 °F 96% 29.91 in 5.0 mi Calm Calm - N/A   Clear
2:15 AM 34.7 °F 29.6 °F 33.1 °F 94% 29.91 in 5.0 mi SSE 5.8 mph - N/A   Clear
2:55 AM 36.0 °F 30.3 °F 34.0 °F 93% 29.89 in 7.0 mi SE 6.9 mph - N/A   Clear
3:15 AM 36.9 °F 30.7 °F 34.7 °F 92% 29.88 in 7.0 mi SE 8.1 mph - N/A   Clear
3:35 AM 38.3 °F 31.9 °F 35.4 °F 89% 29.87 in 7.0 mi SSE 9.2 mph - N/A   Clear
4:15 AM 41.0 °F 35.2 °F 38.8 °F 92% 29.87 in 5.0 mi SSE 9.2 mph - N/A   Overcast
4:35 AM 42.3 °F 36.8 °F 41.9 °F 99% 29.86 in 2.5 mi SSE 9.2 mph - N/A   Overcast
5:15 AM 42.1 °F 36.1 °F 42.1 °F 100% 29.85 in 0.5 mi SSE 10.4 mph - N/A Fog Fog
6:35 AM 42.8 °F 41.1 °F 42.8 °F 100% 29.84 in 0.5 mi SSE 3.5 mph - N/A Fog Fog
7:15 AM 42.3 °F - 42.3 °F 100% 29.85 in 0.2 mi Calm Calm - N/A Fog Fog
7:35 AM 43.7 °F 42.1 °F 43.7 °F 100% 29.86 in 0.2 mi South 3.5 mph - N/A Fog Fog
7:55 AM 44.1 °F 40.8 °F 44.1 °F 100% 29.86 in 0.5 mi South 5.8 mph - N/A Fog Fog
8:15 AM 43.9 °F 41.3 °F 43.9 °F 100% 29.85 in 0.5 mi SSE 4.6 mph - N/A Fog Fog
8:35 AM 44.2 °F 41.8 °F 44.2 °F 100% 29.84 in 0.2 mi South 4.6 mph - N/A Fog Fog
9:15 AM 45.5 °F 44.2 °F 45.5 °F 100% 29.86 in 0.2 mi SSW 3.5 mph - N/A Fog Fog
9:35 AM 46.0 °F 43.1 °F 46.0 °F 100% 29.85 in 0.5 mi South 5.8 mph - N/A Fog Fog
9:55 AM 46.9 °F - 46.9 °F 100% 29.85 in 1.2 mi South 4.6 mph - N/A   Overcast
10:15 AM 47.3 °F - 47.3 °F 100% 29.84 in 1.5 mi South 4.6 mph - N/A   Overcast
10:35 AM 48.2 °F - 48.2 °F 100% 29.85 in 1.8 mi SW 3.5 mph - N/A   Overcast
11:15 AM 49.1 °F - 49.1 °F 100% 29.84 in 2.0 mi Calm Calm - N/A   Overcast
11:35 AM 49.5 °F - 49.5 °F 100% 29.83 in 2.5 mi South 4.6 mph - N/A   Overcast
12:15 PM 50.9 °F - 50.9 °F 100% 29.79 in 1.2 mi South 9.2 mph - N/A   Overcast
12:35 PM 51.3 °F - 51.1 °F 99% 29.79 in 2.0 mi SSW 6.9 mph - N/A   Overcast
12:55 PM 51.8 °F - 51.3 °F 98% 29.78 in 2.0 mi South 5.8 mph - N/A   Overcast
1:15 PM 53.2 °F - 52.2 °F 96% 29.77 in 3.0 mi SSW 4.6 mph - N/A   Overcast
1:35 PM 54.5 °F - 52.2 °F 92% 29.78 in 5.0 mi SSW 8.1 mph - N/A   Overcast
1:55 PM 54.5 °F - 52.2 °F 92% 29.77 in 5.0 mi SW 9.2 mph - N/A   Overcast
2:15 PM 55.6 °F - 52.7 °F 90% 29.76 in 5.0 mi South 6.9 mph - N/A   Overcast
2:35 PM 56.3 °F - 52.7 °F 88% 29.76 in 7.0 mi SW 10.4 mph 17.3 mph N/A   Overcast
2:55 PM 56.3 °F - 52.3 °F 87% 29.77 in 7.0 mi SW 9.2 mph - N/A   Overcast
3:15 PM 56.3 °F - 51.8 °F 85% 29.77 in 7.0 mi SSW 8.1 mph - N/A   Overcast
3:35 PM 56.5 °F - 51.8 °F 84% 29.77 in 7.0 mi SW 6.9 mph - N/A   Overcast
3:55 PM 55.6 °F - 51.1 °F 85% 29.78 in 7.0 mi SW 6.9 mph - N/A   Scattered Clouds
4:15 PM 54.5 °F - 50.9 °F 88% 29.79 in 5.0 mi SW 3.5 mph - N/A   Scattered Clouds
4:35 PM 53.4 °F - 50.7 °F 91% 29.79 in 5.0 mi Calm Calm - N/A   Clear
4:55 PM 52.9 °F - 50.9 °F 93% 29.80 in 5.0 mi Calm Calm - N/A   Clear
5:15 PM 52.2 °F - 50.9 °F 95% 29.81 in 5.0 mi Calm Calm - N/A   Clear
5:35 PM 48.6 °F - 48.6 °F 100% 29.81 in 0.2 mi Calm Calm - N/A Fog Fog
5:55 PM 48.2 °F - 48.2 °F 100% 29.81 in 0.5 mi Calm Calm - N/A Fog Fog
6:15 PM 45.7 °F - 45.7 °F 100% 29.81 in 0.5 mi Calm Calm - N/A Fog Fog
6:35 PM 44.1 °F - 44.1 °F 100% 29.82 in 0.2 mi Calm Calm - N/A Fog Fog
6:55 PM 44.4 °F - 44.4 °F 100% 29.82 in 0.2 mi Calm Calm - N/A Fog Fog
7:15 PM 42.8 °F - 42.8 °F 100% 29.82 in 0.2 mi Calm Calm - N/A Fog Fog
7:35 PM 40.6 °F - 40.6 °F 100% 29.82 in 0.2 mi Calm Calm - N/A Fog Fog
7:55 PM 38.7 °F - 38.7 °F 100% 29.83 in 0.2 mi Calm Calm - N/A Fog Fog
8:15 PM 38.5 °F - 38.5 °F 100% 29.83 in 0.2 mi Calm Calm - N/A Fog Fog
8:35 PM 39.4 °F - 39.4 °F 100% 29.83 in 0.2 mi Calm Calm - N/A Fog Fog
8:55 PM 38.1 °F - 38.1 °F 100% 29.83 in 0.2 mi Calm Calm - N/A Fog Fog
9:15 PM 38.7 °F - 38.7 °F 100% 29.83 in 0.2 mi Calm Calm - N/A Fog Fog
9:35 PM 38.5 °F - 38.5 °F 100% 29.84 in 0.2 mi Calm Calm - N/A Fog Fog
9:55 PM 36.1 °F - 36.1 °F 100% 29.85 in 0.2 mi Calm Calm - N/A Fog Fog
10:15 PM 37.0 °F - 37.0 °F 100% 29.85 in 0.2 mi Calm Calm - N/A Fog Fog
10:35 PM 34.7 °F - 34.7 °F 100% 29.85 in 0.2 mi Calm Calm - N/A Fog Fog
10:55 PM 35.6 °F - 35.6 °F 100% 29.86 in 0.2 mi Calm Calm - N/A Fog Fog
11:15 PM 33.8 °F - 33.8 °F 100% 29.86 in 0.2 mi Calm Calm - N/A Fog Fog
11:35 PM 34.0 °F - 34.0 °F 100% 29.86 in 0.2 mi Calm Calm - N/A Fog Fog
11:55 PM 34.7 °F - 34.7 °F 100% 29.87 in 0.2 mi Calm Calm - N/A Fog Fog